Location: Melizzano
(41.1500°N, 14.5000°E)
Time: 08:58:10
(UTC+00:00)

SPOT 3 Rocket - Pass Details

Date: 11 May 2021
Orbit: 779 x 794 km, 98.7° (Epoch: 15 June)

Event Time Altitude Azimuth Distance (km) Brightness Sun altitude
Exits shadow 19:56:54 21° 176° (S) 1,719 4.9 -17.4°
Maximum altitude 20:00:26 72° 257° (WSW) 825 3.7 -17.8°
Drops below altitude 10° 20:05:35 10° 342° (NNW) 2,342 7.0 -18.5°
Sets 20:07:56 0° 345° (NNW) 3,273 7.9 -18.8°
